TimeCDT,TemperatureF,Dew PointF,Humidity,Sea Level PressureIn,VisibilityMPH,Wind Direction,Wind SpeedMPH,Gust SpeedMPH,PrecipitationIn,Events,Conditions,WindDirDegrees,DateUTC
12:15 AM,75.2,71.6,89,29.89,10.0,South,16.1,25.3,N/A,,Overcast,190,2012-10-14 05:15:00
12:35 AM,75.2,69.8,83,29.89,10.0,South,15.0,21.9,N/A,,Overcast,190,2012-10-14 05:35:00
12:55 AM,75.2,71.6,89,29.89,10.0,SSW,15.0,23.0,N/A,,Overcast,200,2012-10-14 05:55:00
1:15 AM,75.2,69.8,83,29.90,10.0,SSW,15.0,24.2,N/A,,Overcast,200,2012-10-14 06:15:00
1:35 AM,75.2,71.6,89,29.89,10.0,South,12.7,24.2,N/A,,Overcast,190,2012-10-14 06:35:00
1:55 AM,75.2,71.6,89,29.90,10.0,SSW,17.3,26.5,N/A,Thunderstorm,Overcast,200,2012-10-14 06:55:00
2:15 AM,75.2,69.8,83,29.95,10.0,West,24.2,33.4,N/A,Thunderstorm,Thunderstorm,280,2012-10-14 07:15:00
2:35 AM,66.2,64.4,94,29.96,1.8,WSW,16.1,29.9,N/A,Rain-Thunderstorm,Heavy Thunderstorms and Rain,240,2012-10-14 07:35:00
2:55 AM,66.2,64.4,94,29.91,2.0,WSW,12.7,39.1,N/A,Rain-Thunderstorm,Heavy Thunderstorms and Rain,240,2012-10-14 07:55:00
3:15 AM,68.0,66.2,94,29.92,10.0,WSW,9.2,-,N/A,,Scattered Clouds,240,2012-10-14 08:15:00
3:35 AM,68.0,68.0,100,29.93,10.0,SSW,8.1,-,N/A,Thunderstorm,Clear,210,2012-10-14 08:35:00
3:55 AM,68.0,68.0,100,29.92,10.0,SW,6.9,-,N/A,Thunderstorm,Clear,220,2012-10-14 08:55:00
4:15 AM,68.0,68.0,100,29.92,10.0,SSW,6.9,-,N/A,,Clear,210,2012-10-14 09:15:00
4:35 AM,68.0,68.0,100,29.92,10.0,SW,6.9,-,N/A,,Scattered Clouds,230,2012-10-14 09:35:00
4:55 AM,68.0,66.2,94,29.93,10.0,SW,5.8,-,N/A,,Scattered Clouds,230,2012-10-14 09:55:00
5:15 AM,68.0,66.2,94,29.93,10.0,SW,4.6,-,N/A,,Clear,220,2012-10-14 10:15:00
5:35 AM,66.2,64.4,94,29.93,10.0,West,4.6,-,N/A,,Clear,270,2012-10-14 10:35:00
5:55 AM,66.2,64.4,94,29.94,10.0,Calm,Calm,-,N/A,,Clear,0,2012-10-14 10:55:00
6:15 AM,64.4,64.4,100,29.94,10.0,NW,4.6,-,N/A,,Clear,310,2012-10-14 11:15:00
6:35 AM,64.4,64.4,100,29.96,10.0,Calm,Calm,-,N/A,,Clear,0,2012-10-14 11:35:00
6:55 AM,62.6,62.6,100,29.97,3.0,SSE,3.5,-,N/A,,Clear,150,2012-10-14 11:55:00
7:15 AM,62.6,62.6,100,29.98,7.0,Calm,Calm,-,N/A,,Clear,0,2012-10-14 12:15:00
7:35 AM,62.6,62.6,100,30.00,2.5,Calm,Calm,-,N/A,,Clear,0,2012-10-14 12:35:00
7:55 AM,60.8,60.8,100,30.01,7.0,Calm,Calm,-,N/A,,Clear,0,2012-10-14 12:55:00
8:15 AM,60.8,60.8,100,30.02,7.0,Calm,Calm,-,N/A,,Clear,0,2012-10-14 13:15:00
8:35 AM,60.8,60.8,100,30.02,10.0,West,4.6,-,N/A,,Clear,280,2012-10-14 13:35:00
8:55 AM,60.8,60.8,100,30.03,10.0,West,5.8,-,N/A,,Clear,270,2012-10-14 13:55:00
9:15 AM,64.4,57.2,77,30.04,10.0,WNW,11.5,-,N/A,,Clear,300,2012-10-14 14:15:00
9:35 AM,68.0,55.4,64,30.05,10.0,WNW,8.1,-,N/A,,Clear,290,2012-10-14 14:35:00
9:55 AM,69.8,53.6,56,30.05,10.0,WNW,9.2,-,N/A,,Clear,300,2012-10-14 14:55:00
10:15 AM,69.8,51.8,53,30.05,10.0,WNW,12.7,-,N/A,,Clear,300,2012-10-14 15:15:00
10:35 AM,69.8,51.8,53,30.06,10.0,NW,11.5,-,N/A,,Clear,320,2012-10-14 15:35:00
10:55 AM,71.6,51.8,50,30.06,10.0,NW,12.7,-,N/A,,Clear,310,2012-10-14 15:55:00
11:15 AM,71.6,53.6,53,30.06,10.0,NNW,9.2,-,N/A,,Clear,330,2012-10-14 16:15:00
11:35 AM,71.6,53.6,53,30.07,10.0,NW,8.1,-,N/A,,Clear,320,2012-10-14 16:35:00
11:55 AM,73.4,55.4,53,30.07,10.0,NNW,9.2,-,N/A,,Clear,330,2012-10-14 16:55:00
12:15 PM,73.4,53.6,50,30.08,10.0,WNW,6.9,-,N/A,,Clear,300,2012-10-14 17:15:00
12:35 PM,73.4,53.6,50,30.08,10.0,NW,6.9,-,N/A,,Clear,320,2012-10-14 17:35:00
12:55 PM,75.2,53.6,47,30.08,10.0,NW,6.9,-,N/A,,Clear,310,2012-10-14 17:55:00
1:15 PM,75.2,53.6,47,30.08,10.0,North,5.8,-,N/A,,Clear,350,2012-10-14 18:15:00
1:35 PM,75.2,53.6,47,30.08,10.0,NNW,11.5,-,N/A,,Clear,340,2012-10-14 18:35:00
1:55 PM,77.0,53.6,44,30.07,10.0,North,9.2,-,N/A,,Clear,350,2012-10-14 18:55:00
2:15 PM,77.0,55.4,47,30.06,10.0,North,10.4,-,N/A,,Clear,350,2012-10-14 19:15:00
2:35 PM,77.0,53.6,44,30.05,10.0,NNW,9.2,-,N/A,,Clear,330,2012-10-14 19:35:00
2:55 PM,77.0,51.8,41,30.05,10.0,NNW,11.5,-,N/A,,Clear,330,2012-10-14 19:55:00
3:15 PM,78.8,53.6,42,30.05,10.0,NNW,10.4,17.3,N/A,,Clear,330,2012-10-14 20:15:00
3:35 PM,78.8,55.4,44,30.04,10.0,NNW,10.4,-,N/A,,Clear,340,2012-10-14 20:35:00
3:55 PM,78.8,51.8,39,30.04,10.0,NNW,15.0,-,N/A,,Clear,340,2012-10-14 20:55:00
4:15 PM,78.8,51.8,39,30.05,10.0,North,11.5,-,N/A,,Clear,350,2012-10-14 21:15:00
4:35 PM,78.8,51.8,39,30.04,10.0,NNW,11.5,-,N/A,,Clear,340,2012-10-14 21:35:00
4:55 PM,78.8,51.8,39,30.05,10.0,NW,12.7,-,N/A,,Clear,320,2012-10-14 21:55:00
5:15 PM,77.0,53.6,44,30.05,10.0,North,8.1,-,N/A,,Clear,350,2012-10-14 22:15:00
5:35 PM,77.0,51.8,41,30.05,10.0,NNW,8.1,-,N/A,,Clear,330,2012-10-14 22:35:00
5:55 PM,77.0,53.6,44,30.05,10.0,NNW,5.8,-,N/A,,Clear,340,2012-10-14 22:55:00
6:15 PM,75.2,55.4,50,30.04,10.0,NNW,6.9,-,N/A,,Clear,330,2012-10-14 23:15:00
6:35 PM,73.4,57.2,57,30.04,10.0,NW,3.5,-,N/A,,Clear,320,2012-10-14 23:35:00
6:55 PM,71.6,57.2,60,30.04,10.0,NW,4.6,-,N/A,,Clear,320,2012-10-14 23:55:00
7:15 PM,69.8,57.2,64,30.05,10.0,NW,4.6,-,N/A,,Clear,310,2012-10-15 00:15:00
7:35 PM,69.8,55.4,60,30.05,10.0,NW,4.6,-,N/A,,Clear,310,2012-10-15 00:35:00
7:55 PM,69.8,55.4,60,30.05,10.0,NW,3.5,-,N/A,,Clear,310,2012-10-15 00:55:00
8:15 PM,66.2,57.2,73,30.06,10.0,NW,4.6,-,N/A,,Clear,320,2012-10-15 01:15:00
8:35 PM,68.0,55.4,64,30.06,10.0,NNW,8.1,-,N/A,,Clear,330,2012-10-15 01:35:00
8:55 PM,68.0,53.6,60,30.07,10.0,NNW,5.8,-,N/A,,Clear,330,2012-10-15 01:55:00
9:15 PM,64.4,55.4,73,30.07,10.0,NNW,4.6,-,N/A,,Clear,330,2012-10-15 02:15:00
9:35 PM,62.6,55.4,77,30.08,10.0,NNW,3.5,-,N/A,,Clear,330,2012-10-15 02:35:00
9:55 PM,62.6,55.4,77,30.08,10.0,NW,5.8,-,N/A,,Clear,320,2012-10-15 02:55:00
10:15 PM,64.4,55.4,73,30.09,10.0,NW,3.5,-,N/A,,Clear,320,2012-10-15 03:15:00
10:35 PM,64.4,53.6,68,30.10,10.0,NW,3.5,-,N/A,,Clear,320,2012-10-15 03:35:00
10:55 PM,64.4,53.6,68,30.09,10.0,NW,4.6,-,N/A,,Clear,320,2012-10-15 03:55:00
11:15 PM,62.6,53.6,72,30.10,10.0,NW,3.5,-,N/A,,Clear,310,2012-10-15 04:15:00
11:35 PM,62.6,53.6,72,30.10,10.0,NW,3.5,-,N/A,,Clear,310,2012-10-15 04:35:00
11:55 PM,60.8,53.6,77,30.10,10.0,NW,3.5,-,N/A,,Clear,320,2012-10-15 04:55:00